Voltar ao catálogo

FENGYUN 1C DEB

AtivoSSO
NORAD 31906·DEBRIS·🇨🇳 China

Lançado May 10, 1999 de Taiyuan Satellite Launch Center

Loading…

Próximas Passagens (próximas 24 horas)

TLE

AtualizadoSource: Space-Track

Época: Sep 14, 2026, 08:13 UTC

1 31906U 99025CLH 26257.34261291  .00001064  00000-0  45072-3 0  9996
2 31906  98.7045  33.4338 0052672  36.9357 352.7085 14.26803487990576

Acompanhe FENGYUN 1C DEB em tempo real com AllMySat

Download on the App Store